Satellite: NOAA-16
Catalog number: 26536
Epoch time:      11096.82218115
Element set:    0252
Inclination:      099.1465 deg
RA of node:       125.8946 deg
Eccentricity:    0.0010026
Arg of perigee:   229.8725 deg
Mean anomaly:     130.1540 deg
Mean motion:   14.12606846 rev/day
Decay rate:       -8.0e-08 rev/day^2
Epoch rev:           54328
Checksum:              291

Satellite: NOAA-17
Catalog number: 27453
Epoch time:      11096.73041618
Element set:    0246
Inclination:      098.3874 deg
RA of node:       139.6953 deg
Eccentricity:    0.0011690
Arg of perigee:   004.0351 deg
Mean anomaly:     356.0928 deg
Mean motion:   14.24254707 rev/day
Decay rate:       2.40e-06 rev/day^2
Epoch rev:           45648
Checksum:              305

Satellite: NOAA-18
Catalog number: 28654
Epoch time:      11096.78731743
Element set:    0727
Inclination:      098.9898 deg
RA of node:       047.7843 deg
Eccentricity:    0.0013739
Arg of perigee:   309.0424 deg
Mean anomaly:     050.9553 deg
Mean motion:   14.11455370 rev/day
Decay rate:       1.99e-06 rev/day^2
Epoch rev:           30285
Checksum:              341

Satellite: NOAA-19
Catalog number: 33591
Epoch time:      11096.76878348
Element set:    0920
Inclination:      098.8224 deg
RA of node:       038.1423 deg
Eccentricity:    0.0013994
Arg of perigee:   174.6544 deg
Mean anomaly:     185.4806 deg
Mean motion:   14.11147067 rev/day
Decay rate:        7.5e-07 rev/day^2
Epoch rev:           11131
Checksum:              315

/EX
SB KEPS @ AMSAT  $ORB11097.M
Orbital Elements  11097.MISC

HR AMSAT ORBITAL ELEMENTS FOR MANNED AND MISCELLANEOUS SATELLITES
FROM WA5QGD FORT WORTH,TX April 7, 2011
Send Subscribe/unsubscribe to KEPS at http://www.amsat.org/mailman/listinfo/kep
BID: ORB11097.M
TO ALL RADIO AMATEURS BT

Satellite: HUBBLE
Catalog number: 20580
Epoch time:      11097.18782763
Element set:     742
Inclination:      028.4681 deg
RA of node:       120.2080 deg
Eccentricity:    0.0003163
Arg of perigee:   099.6331 deg
Mean anomaly:     260.4775 deg
Mean motion:   15.01261249 rev/day
Decay rate:      1.628e-05 rev/day^2
Epoch rev:           94897
Checksum:              298

Satellite: ISS
Catalog number: 25544
Epoch time:      11097.75640206
Element set:     150
Inclination:      051.6442 deg
RA of node:       162.3701 deg
Eccentricity:    0.0002499
Arg of perigee:   086.9408 deg
Mean anomaly:     011.1115 deg
Mean motion:   15.72967989 rev/day
Decay rate:     6.0054e-04 rev/day^2
Epoch rev:           70981
Checksum:              295

Satellite: CO-58
Catalog number: 28895
Epoch time:      11097.61661347
Element set:     842
Inclination:      097.9768 deg
RA of node:       336.6958 deg
Eccentricity:    0.0019018
Arg of perigee:   083.1139 deg
Mean anomaly:     277.2220 deg
Mean motion:   14.60053366 rev/day
Decay rate:       7.78e-06 rev/day^2
Epoch rev:           28994
Checksum:              361

Satellite: FALCON
Catalog number: 30776
Epoch time:      11096.97235591
Element set:    0076
Inclination:      035.4296 deg
RA of node:       059.9176 deg
Eccentricity:    0.0000440
Arg of perigee:   235.8764 deg
Mean anomaly:     124.1922 deg
Mean motion:   15.04341976 rev/day
Decay rate:      4.337e-05 rev/day^2
Epoch rev:           22431
Checksum:              301

Satellite: MAST
Catalog number: 31126
Epoch time:      11096.72876688
Element set:    0134
Inclination:      097.9017 deg
RA of node:       127.9742 deg
Eccentricity:    0.0095076
Arg of perigee:   033.8133 deg
Mean anomaly:     326.9074 deg
Mean motion:   14.53708048 rev/day
Decay rate:       5.50e-06 rev/day^2
Epoch rev:           21070
Checksum:              303

Satellite: CAPE1
Catalog number: 31130
Epoch time:      11096.64815094
Element set:    0147
Inclination:      097.9070 deg
RA of node:       124.7732 deg
Eccentricity:    0.0103360
Arg of perigee:   044.1741 deg
Mean anomaly:     316.7672 deg
Mean motion:   14.52336200 rev/day
Decay rate:       7.94e-06 rev/day^2
Epoch rev:           21025
Checksum:              264

Satellite: COMPASS
Catalog number: 32787
Epoch time:      11096.65993414
Element set:    0955
Inclination:      097.8538 deg
RA of node:       161.7932 deg
Eccentricity:    0.0016590
Arg of perigee:   052.3855 deg
Mean anomaly:     307.8861 deg
Mean motion:   14.82264089 rev/day
Decay rate:      2.039e-05 rev/day^2
Epoch rev:           15896
Checksum:              350

Satellite: AAUSAT2
Catalog number: 32788
Epoch time:      11096.83487748
Element set:    0944
Inclination:      097.8539 deg
RA of node:       162.1674 deg
Eccentricity:    0.0016357
Arg of perigee:   052.8893 deg
Mean anomaly:     307.3810 deg
Mean motion:   14.82440365 rev/day
Decay rate:      2.450e-05 rev/day^2
Epoch rev:           15900
Checksum:              331

Satellite: DO-64
Catalog number: 32789
Epoch time:      11097.67487327
Element set:     960
Inclination:      097.8635 deg
RA of node:       163.8672 deg
Eccentricity:    0.0016150
Arg of perigee:   049.4506 deg
Mean anomaly:     310.8147 deg
Mean motion:   14.82813182 rev/day
Decay rate:      3.879e-05 rev/day^2
Epoch rev:           15913
Checksum:              345

